Weather History for KHKY - January, 2015

Change the Weather History Date:

Thursday, January 29, 2015

  Actual Average Record
Temperature  
Mean Temperature 36 °F -  
Max Temperature 48 °F 50 °F 78 °F (1975)
Min Temperature 25 °F 28 °F 10 °F (1977)
Degree Days  
Heating Degree Days 28    
Moisture  
Dew Point 22 °F    
Average Humidity 56    
Maximum Humidity 85    
Minimum Humidity 36    
Precipitation  
Precipitation 0.00 in - - ()
Sea Level Pressure  
Sea Level Pressure 30.16 in    
Wind  
Wind Speed 4 mph (SSW)    
Max Wind Speed 17 mph    
Max Gust Speed 26 mph    
Visibility 10 miles    
Events Rain    
Averages and records for this station are not official NWS values.
T = Trace of Precipitation, MM = Missing Value Source: NWS Daily Summary

Daily Weather History Graph

Daily Weather History Graph

Search for Another Location

Airport or City:

Trip Planner

Search our weather history database for the weather conditions in past years. The results will help you decide how hot, cold, wet, or windy it might be!

Date:

Astronomy

Jan. 29, 2015 Rise Set
Actual Time 7:28 AM EST 5:49 PM EST
Civil Twilight 7:01 AM EST 6:16 PM EST
Nautical Twilight 6:30 AM EST 6:47 PM EST
Astronomical Twilight 6:00 AM EST 7:17 PM EST
Moon 1:37 PM EST (1/29) 2:58 AM EST (1/29)
Length of Visible Light 11h 15m
Length of Day
10h 21m
Waxing Gibbous, 75% of the Moon is Illuminated
Jan 29
Waxing Gibbous
Feb 3
Full
Feb 11
Last Quarter
Feb 18
New
Feb 25
First Quarter

Hourly Weather History & Observations

Time (EST) Temp. Windchill Dew Point Humidity Pressure Visibility Wind Dir Wind Speed Gust Speed Precip Events Conditions
12:53 AM 28.9 °F 25.2 °F 18.0 °F 64% 30.28 in 10.0 mi NNE 3.5 mph - N/A   Clear
1:53 AM 28.9 °F - 21.0 °F 72% 30.28 in 10.0 mi Calm Calm - N/A   Clear
2:53 AM 28.0 °F - 19.9 °F 72% 30.27 in 10.0 mi Calm Calm - N/A   Clear
3:53 AM 28.0 °F - 21.9 °F 78% 30.27 in 10.0 mi Calm Calm - N/A   Clear
4:53 AM 27.0 °F - 21.0 °F 78% 30.27 in 10.0 mi Calm Calm - N/A   Clear
5:53 AM 26.1 °F - 19.0 °F 75% 30.26 in 10.0 mi Calm Calm - N/A   Clear
6:53 AM 27.0 °F - 21.0 °F 78% 30.26 in 10.0 mi Calm Calm - N/A   Clear
7:53 AM 25.0 °F - 21.0 °F 85% 30.28 in 9.0 mi Calm Calm - N/A   Clear
8:53 AM 30.0 °F - 23.0 °F 75% 30.28 in 9.0 mi Calm Calm - N/A   Clear
9:53 AM 35.1 °F 31.0 °F 21.9 °F 59% 30.26 in 10.0 mi South 4.6 mph - N/A   Clear
10:53 AM 39.9 °F 32.9 °F 19.9 °F 45% 30.25 in 10.0 mi SSW 11.5 mph - N/A   Clear
11:53 AM 42.1 °F 36.6 °F 21.0 °F 43% 30.20 in 10.0 mi South 9.2 mph - N/A   Clear
12:53 PM 44.1 °F 36.5 °F 21.9 °F 42% 30.16 in 10.0 mi SSW 17.3 mph 26.5 mph N/A   Scattered Clouds
1:53 PM 43.0 °F 37.7 °F 27.0 °F 53% 30.12 in 10.0 mi SSW 9.2 mph 21.9 mph 0.00 in Rain Light Rain
2:53 PM 45.0 °F 39.3 °F 24.1 °F 44% 30.09 in 10.0 mi South 11.5 mph 19.6 mph 0.00 in   Mostly Cloudy
3:53 PM 46.9 °F - 23.0 °F 39% 30.06 in 10.0 mi SSW 11.5 mph - N/A   Clear
4:53 PM 48.0 °F - 21.9 °F 36% 30.05 in 10.0 mi SSW 8.1 mph - N/A   Clear
5:53 PM 46.0 °F 42.5 °F 21.0 °F 37% 30.05 in 10.0 mi South 6.9 mph - N/A   Clear
6:53 PM 43.0 °F 40.3 °F 21.9 °F 43% 30.06 in 10.0 mi South 4.6 mph - N/A   Clear
7:53 PM 43.0 °F 41.3 °F 21.9 °F 43% 30.06 in 10.0 mi Variable 3.5 mph - N/A   Mostly Cloudy
8:53 PM 44.1 °F 40.1 °F 21.9 °F 42% 30.04 in 10.0 mi South 6.9 mph - N/A   Overcast
9:53 PM 44.1 °F 40.1 °F 23.0 °F 43% 30.01 in 10.0 mi South 6.9 mph - N/A   Overcast
10:53 PM 44.1 °F 41.5 °F 23.0 °F 43% 29.99 in 10.0 mi SSW 4.6 mph - N/A   Overcast
11:53 PM 44.1 °F 42.5 °F 25.0 °F 47% 29.97 in 10.0 mi SSW 3.5 mph - N/A   Overcast